Regional Weather Roundup
Issued by NWS

Home | Current Version | Previous Version | Text Only | Print | Product List | Glossary On
Versions: 1 2 3 4 5 6 7 8 9 10 11 12 13 14 15 16 17 18 19 20 21 22 23 24 25 26 27 28 29 30 31 32 33 34 35 36 37 38 39 40 41 42 43 44 45 46 47 48 49 50
000
ASUS46 KSEW 172010
RWRWA

WASHINGTON REGIONAL WEATHER ROUNDUP
NATIONAL WEATHER SERVICE SEATTLE WA
1200 PM PST FRI NOV 17 2017

NOTE:"FAIR" INDICATES FEW OR NO CLOUDS BELOW 12,000 FEET WITH NO
SIGNIFICANT WEATHER AND/OR OBSTRUCTIONS TO VISIBILITY.

WAZ507-509-555>559-172100-
SEATTLE, TACOMA, EVERETT, AND VICINITY

CITY           SKY/WX    TMP DP  RH WIND       PRES   REMARKS
EVERETT        MOSUNNY   44  37  76 SE10      30.10R
BOEING FIELD   PTSUNNY   48  38  68 SW7       30.11R
RENTON         CLOUDY    49  39  68 S9        30.11R
SEATAC AIRPORT PTSUNNY   48  39  71 SW17      30.10R
JBLM-MCCHORD   SUNNY     48  42  80 SW12G21   30.12R
PUYALLUP       PTSUNNY   46  39  76 SW9       30.12R
BREMERTON      MOSUNNY   47  40  76 SW13      30.10R
JBLM-FT LEWIS  SUNNY     48  46  93 S12       30.12R
TACOMA NARROWS MOSUNNY   48  40  73 S14G23    30.11R
$$

WAZ001-503-506-510-514-515-172100-
NORTH INTERIOR

CITY           SKY/WX    TMP DP  RH WIND       PRES   REMARKS
BELLINGHAM     PTSUNNY   47  39  74 S7        30.06R
FRIDAY HARBOR  PTSUNNY   48  39  71 SW9       30.08R
EASTSOUND      MOSUNNY   48  39  71 VRB3      30.07R
PORT ANGELES   CLOUDY    48  38  68 NW6       30.08R
EDIZ HOOK      CLOUDY    48  38  67 W8        30.08R
PORT TOWNSEND  FAIR      48  41  76 SE6       30.10R
NAS WHIDBEY    NOT AVBL
ARLINGTON      PTSUNNY   48  39  71 S9        30.11R
BURLINGTON     CLOUDY    46  43  87 S7        30.09R
$$

WAZ020-022-039-040-504-511-512-172100-
SOUTHWEST INTERIOR

CITY           SKY/WX    TMP DP  RH WIND       PRES   REMARKS
SHELTON        SUNNY     48  40  73 SW13      30.09R
OLYMPIA        PTSUNNY   47  42  83 S13       30.13R
CHEHALIS       PTSUNNY   46  43  87 S6        30.15R
KELSO          CLOUDY    47  42  83 S8        30.18R
VANCOUVER      CLOUDY    49  43  80 SW6       30.20R
SCAPPOOSE, OR  PTSUNNY   48  42  80 S8        30.19R
PORTLAND, OR   CLOUDY    49  43  80 S10       30.20R
$$

WAZ021-516-517-172100-
WASHINGTON COAST

CITY           SKY/WX    TMP DP  RH WIND       PRES   REMARKS
FORKS          PTSUNNY   46  44  93 S3        30.10R
HOQUIAM        LGT RAIN  48  41  76 W7        30.13R
ASTORIA, OR    MOSUNNY   50  42  74 SW8       30.15R
$$

WAZ019-023-024-040-567>569-172100-
CASCADE MOUNTAINS AND COLUMBIA GORGE

CITY           SKY/WX    TMP DP  RH WIND       PRES   REMARKS
STAMPEDE PASS  NOT AVBL
TROUTDALE, OR  PTSUNNY   51  42  71 SW12      30.20R
HOOD RIVER, OR LGT RAIN  46  39  76 W13G21    30.14R
THE DALLES, OR SUNNY     51  39  63 NW9       30.13R
$$

WAZ026-027-041>044-520-521-172100-
EAST SLOPES

CITY           SKY/WX    TMP DP  RH WIND       PRES   REMARKS
OMAK           SUNNY     43  34  70 S6        29.92R
WENATCHEE      SUNNY     49  24  37 W13       29.95R
ELLENSBURG     SUNNY     46  31  55 NW17G26   29.99R
YAKIMA         MOSUNNY   54  24  31 W13G26    30.02R
SUNNYSIDE ARPT CLEAR     50  30  45 SW17G25   30.05R
YAKIMA TC      FAIR      49  25  39 W14G23    29.99R
$$

WAZ028-034-035-172100-
COLUMBIA BASIN

CITY           SKY/WX    TMP DP  RH WIND       PRES   REMARKS
EPHRATA        SUNNY     50  25  37 SW12      29.96R
MOSES LAKE     SUNNY     50  28  42 W20G25    29.97R
PASCO          SUNNY     52  35  52 SW16G26   30.07R
RICHLAND ARPT  CLEAR     54  35  47 SW10G16   30.06R
HERMISTON, OR  SUNNY     51  35  54 W22G30    30.09R
$$

WAZ036>038-172100-
NORTHEAST WASHINGTON

CITY           SKY/WX    TMP DP  RH WIND       PRES   REMARKS
SPOKANE GEIGER MOSUNNY   41  31  67 SW21      29.92R
SPOKANE FELTS  MOSUNNY   44  31  60 SW18      29.94R
FAIRCHILD AFB  SUNNY     41  32  71 SW21      29.92R
COEURDALENE,ID CLOUDY    39  30  70 SW15      29.93R
DEER PARK      SUNNY     41  30  65 SW13      29.92R
$$

WAZ029>033-172100-
SOUTHEAST WASHINGTON

CITY           SKY/WX    TMP DP  RH WIND       PRES   REMARKS
PULLMAN        MOSUNNY   41  31  67 W22G38    29.98R
LEWISTON, ID   SUNNY     50  27  40 W20G29    29.99R
WALLA WALLA    MOSUNNY   49  34  56 W20G28    30.07R
PENDLETON, OR  SUNNY     48  31  51 W22G31    30.07R
$$



USA.gov is the U.S. government's official web portal to all federal, state and local government web resources and services.